Location: Владивосток
(43.1151°N, 131.8856°E)
Time: 21:14:55
(UTC+10:00)

DX 1 - Pass Details

Date: 08 July 2022
Orbit: 617 x 629 km, 98.4° (Epoch: 10 August)

Event Time Altitude Azimuth Distance (km) Brightness Sun altitude
Rises 21:49:30 0° 22° (NNE) 2,924 ? -8.9°
Reaches altitude 10° 21:51:53 10° 32° (NNE) 2,010 ? -9.2°
Maximum altitude 21:55:51 33° 97° (E) 1,049 ? -9.7°
Enters shadow 21:59:41 11° 162° (SSE) 1,955 ? -10.2°
